This is the latest recevied weather packets stored in our database for station/object KK6LZB. If no packets are shown the sender has not sent any weather packets the latest 10 day(s).
| Time | Temp. | Humidity | Pressure | Rain* | Wind** | Luminosity | Snow |
|---|---|---|---|---|---|---|---|
| 1778183642 | 20.56° C | 77% | 1017.7 hPa | 0 mm | - | 730 W/m² | - |
| 1778183339 | 20.56° C | 77% | 1017.6 hPa | 0 mm | - | 731 W/m² | - |
| 1778183036 | 20.56° C | 75% | 1017.5 hPa | 0 mm | - | 730 W/m² | - |
| 1778182732 | 20.56° C | 76% | 1017.7 hPa | 0 mm | - | 730 W/m² | - |
| 1778182429 | 21.11° C | 76% | 1017.6 hPa | 0 mm | - | 728 W/m² | - |
| 1778182125 | 20.56° C | 77% | 1017.8 hPa | 0 mm | - | 727 W/m² | - |
| 1778181822 | 21.11° C | 75% | 1017.8 hPa | 0 mm | - | 722 W/m² | - |
| 1778181518 | 20.56° C | 77% | 1017.9 hPa | 0 mm | - | 722 W/m² | - |
| 1778181215 | 20.56° C | 76% | 1017.9 hPa | 0 mm | - | 721 W/m² | - |
| 1778180912 | 20.56° C | 77% | 1018.1 hPa | 0 mm | - | 719 W/m² | - |
| 1778180610 | 21.11° C | 75% | 1017.9 hPa | 0 mm | - | 716 W/m² | - |
| 1778180309 | 21.11° C | 75% | 1018.1 hPa | 0 mm | - | 709 W/m² | - |
| 1778180005 | 21.11° C | 75% | 1018.1 hPa | 0 mm | - | 707 W/m² | - |
| 1778179702 | 20.56° C | 75% | 1018.3 hPa | 0 mm | - | 700 W/m² | - |
| 1778179400 | 20.56° C | 77% | 1018.1 hPa | 0 mm | - | 697 W/m² | - |
| 1778179097 | 20° C | 79% | 1018.3 hPa | 0 mm | - | 692 W/m² | - |
| 1778178794 | 20.56° C | 76% | 1018.4 hPa | 0 mm | - | 687 W/m² | - |
| 1778178491 | 20° C | 77% | 1018.4 hPa | 0 mm | - | 678 W/m² | - |
| 1778178186 | 20.56° C | 77% | 1018.3 hPa | 0 mm | - | 673 W/m² | - |
| 1778177883 | 20.56° C | 76% | 1018.4 hPa | 0 mm | - | 664 W/m² | - |
| 1778177579 | 20.56° C | 77% | 1018.2 hPa | 0 mm | - | 658 W/m² | - |
| 1778177276 | 20.56° C | 77% | 1018.2 hPa | 0 mm | - | 650 W/m² | - |
| 1778176973 | 20.56° C | 77% | 1018.3 hPa | 0 mm | - | 645 W/m² | - |
| 1778176668 | 20.56° C | 77% | 1018.2 hPa | 0 mm | - | 636 W/m² | - |
| 1778176366 | 20.56° C | 78% | 1018.4 hPa | 0 mm | - | 626 W/m² | - |
* Rain latest hour (hover to see other rain measurements)
** Current wind speed in m/s (hover to see current wind gust speed)